Other Public Products
Issued by NWS Grand Forks, ND

Home | Current Version | Previous Version | Text Only | Print | Product List | Glossary Off
Versions: 1 2 3 4 5 6 7 8 9 10 11 12 13 14 15 16 17 18 19 20 21 22 23 24 25 26 27 28 29 30 31 32 33 34 35 36 37 38 39 40 41 42 43 44 45 46 47 48 49 50

000
FPUS83 KFGF 152010
OPUFGF
PRAIRIE TO PINES WEATHER ROUNDUP
NATIONAL WEATHER SERVICE EASTERN NORTH DAKOTA/GRAND FORKS ND
200 PM CST FRI DEC 15 2017

 **SATELLITE DATA USED TO AUGMENT SKY COVER AT AUTOMATED STATIONS**
 *****  WEATHER ACROSS EASTERN NORTH DAKOTA  *****

CITY           SKY/WX    TMP DP  RH WIND       PRES   REMARKS
GRAND FORKS    FLURRIES  22  18  85 S13       29.70F WCI  10
GRND FORKS AFB PTSUNNY   21  17  85 S15       29.68F WCI   8
GRND FORKS NWS NOT AVBL
BUXTON         NOT AVBL
DEVILS LAKE    CLOUDY    29  27  92 SE7       29.60F WCI  22
FARGO          CLOUDY    26  21  81 S14       29.71F WCI  14
WAHPETON ARPT  CLOUDY    28  25  86 SE12      29.72F WCI  18
$$

 *****  WEATHER ACROSS CENTRAL AND WESTERN NORTH DAKOTA  *****

CITY           SKY/WX    TMP DP  RH WIND       PRES   REMARKS
JAMESTOWN      CLOUDY    31  29  92 S12       29.61F WCI  22
BISMARCK       CLOUDY    43  25  49 W9        29.60F
MINOT          CLOUDY    39  25  57 W9        29.53F
MINOT AFB      CLOUDY    38  26  62 W9        29.51F
GARRISON         N/A     39  24  55 W9        29.53F
WILLISTON      MOSUNNY   41  23  48 W8        29.56F
DICKINSON      FAIR      45  23  42 W21G30    29.58F
HETTINGER      FAIR      47  21  35 W23       29.64F
$$

 *****  OTHER OBSERVATIONS NORTHEAST NORTH DAKOTA  *****

CITY           SKY/WX    TMP DP  RH WIND       PRES   REMARKS
WALHALLA       FAIR      21  21 100 SE9G16    29.66F WCI  11
LANGDON        CLOUDY    27  27 100 S12       29.60F WCI  16
CAVALIER       MIX PCPN  19  18  93 SE8       29.67F WCI   9
GRAFTON        CLOUDY    21  18  86 S14       29.72S FOG     WCI   8
CANDO          LGT SNOW  30  30 100 SE9       29.60F WCI  22
FORT TOTTEN      N/A     31  28  90 S6        29.95S
ROLLA          LGT SNOW  27  27 100 S6        29.55F WCI  20
RUGBY          FAIR      32  28  86 S10       29.54F WCI  24
 ***** THE ABOVE OBSERVATIONS ARE NON NWS ARE NOT QUALITY
        CONTROLLED AND MAY MIS-REPORT RAIN FOR SNOW...
$$

 *****  OTHER OBSERVATIONS SOUTHEAST NORTH DAKOTA *****

CITY           SKY/WX    TMP DP  RH WIND       PRES   REMARKS
COOPERSTOWN    MOCLDY    27  25  93 S13       29.63F WCI  16
VALLEY CITY    CLOUDY    28  28 100 S9        29.66F WCI  20
OAKES            N/A     32  32 100 S8        29.67F WCI  25
GWINNER          N/A     34  30  86 SW10      29.67F
SHEYENNE NWR     N/A     29  29  99 S7        29.95  WCI  22
BUFFALO        NOT AVBL
WYNDMERE       NOT AVBL
 ***** THE ABOVE OBSERVATIONS ARE NON NWS ARE NOT QUALITY
       CONTROLLED AND MAY MIS-REPORT RAIN FOR SNOW...
$$

  *****  WEATHER ACROSS NORTHERN MINNESOTA  *****

CITY           SKY/WX    TMP DP  RH WIND       PRES   REMARKS
FLAG ISLAND    FLURRIES   7   1  78 SE6       29.74F WCI  -3
WARROAD        LGT SNOW  12   7  79 CALM      29.74F
ROSEAU         FLURRIES  14   9  79 S5        29.73F WCI   6
HALLOCK        CLOUDY    18  16  93 SE14      29.70F WCI   4
THF RVR FALLS  FLURRIES  16  12  84 SE9       29.71F WCI   4
HALSTAD        NOT AVBL
FOSSTON        CLOUDY    16  12  86 SE5       29.71F WCI   9
BAUDETTE       CLOUDY     9   4  80 SE5       29.73F WCI   1
WASKISH        CLOUDY    12   7  79 SE5       29.73F WCI   4
CROOKSTON      CLOUDY    19  16  86 S9        29.72F FOG     WCI   9
$$
  *****  WEATHER ACROSS CENTRAL AND WEST MINNESOTA  *****

CITY           SKY/WX    TMP DP  RH WIND       PRES   REMARKS
BEMIDJI        CLOUDY    13   8  79 S7        29.72F WCI   3
PARK RAPIDS    CLOUDY    17  10  74 SE5       29.72F WCI  10
WADENA         CLOUDY    19  14  79 CALM      29.73F
DETROIT LAKES  CLOUDY    23  18  80 S8        29.71F WCI  14
MOORHEAD       CLOUDY    25  19  80 S12       29.72F WCI  14
FERGUS FALLS   CLOUDY    25  21  86 S9        29.76F WCI  15
ELBOW LAKE     CLOUDY    27  24  89 S9        29.73F WCI  18
MORRIS MN      CLOUDY    28  27  93 S8        29.73F WCI  20
STAPLES        CLOUDY    19  10  68 CALM      29.74F
WHEATON        PTSUNNY   28  27  93 S8        29.74F WCI  20
$$
  *****  WEATHER ELSEWHERE ACROSS MINNESOTA  *****

CITY           SKY/WX    TMP DP  RH WIND       PRES   REMARKS
DULUTH         PTSUNNY   12   4  70 W7        29.74F WCI   1
INTRNTL FALLS  CLOUDY    11   2  67 NW3       29.76F
ELY            FAIR       9   1  72 NW6       29.74F WCI  -1
CLOQUET        CLOUDY    16   3  57 W6        29.75F WCI   7
BRAINERD       CLOUDY    20  11  68 CALM      29.75F
HIBBING        FAIR      10   2  69 CALM      29.75F
ALEXANDRIA     CLOUDY    25  20  81 S7        29.73F WCI  17
SAINT CLOUD    CLOUDY    23  17  78 SE6       29.78F WCI  16
MINNEAPOLIS    CLOUDY    27  20  75 CALM      29.81F
$$

  *****  WEATHER ACROSS SOUTH DAKOTA  *****

CITY           SKY/WX    TMP DP  RH WIND       PRES   REMARKS
SIOUX FALLS    PTSUNNY   41  27  57 SW10      29.77F
BROOKINGS      FAIR      39  26  59 SW10      29.72F
WATERTOWN      PTSUNNY   36  29  75 SW13      29.69F
HURON          FAIR      42  27  55 S13       29.71F
SISSETON         N/A     34  31  88 SE7       29.69F
ABERDEEN       CLOUDY    38  27  64 S9        29.66F
MITCHELL       CLOUDY    41  26  55 S9        29.75F
PIERRE         FAIR      45  26  47 SW8       29.68F
MOBRIDGE       FAIR      45  27  49 SW8       29.61F
RAPID CITY     FAIR      55  16  21 S7        29.71F
$$

  *****  SOME WEATHER IN NEARBY STATES *****

CITY           SKY/WX    TMP DP  RH WIND       PRES   REMARKS
GLASGOW MT     FAIR      39  22  50 NW3       29.62F
GREAT FALLS MT FAIR      47  14  26 SW26G41   29.76S
CHEYENNE WY    FAIR      51  13  21 W25G33    29.92F
SCOTTSBLUFF NE FAIR      57  14  18 W18       29.86F
OMAHA NE       FAIR      46  25  43 SW17      29.89F
DES MOINES IA  CLOUDY    44  21  40 W21G29    29.89F
DAVENPORT IA   CLOUDY    35  23  61 W17G25    29.94F WCI  25
CHICAGO IL     CLOUDY    32  19  58 W15G22    29.89S WCI  22
EAU CLAIRE WI  CLOUDY    21  13  71 W8        29.81F WCI  11
LA CROSSE WI   CLOUDY    32  25  75 SW6       29.83F
$$

  *****  SOME NATIONAL WEATHER *****

CITY           SKY/WX    TMP DP  RH WIND       PRES   REMARKS
LA GUARDIA NY  LGT SNOW  27  16  63 CALM      29.93F
RALEIGH NC     CLOUDY    42  28  57 W7        29.94S
ATLANTA GA     CLOUDY    39  24  55 NW14      30.08S
NEW ORLEANS LA LGT RAIN  48  39  71 N7        30.21R
OKLAHOMA CITY  FAIR      50  21  32 NW9G18    30.19F
ALBUQUERQUE NM FAIR      43  15  32 SW3       30.24F
SALT LAKE CITY PTSUNNY   42  26  53 CALM      30.22F
LOS ANGELES CA FAIR      80  13   8 W12       30.10F
BOISE ID       CLOUDY    27  22  81 CALM      30.24F
SEATTLE WA     CLOUDY    43  38  82 S10       30.18F
$$

*** WEATHER ACROSS MANITOBA...SASKATCHEWAN AND ONTARIO ***
                ***ONTARIO***

CITY           SKY/WX    TMP DP  RH WIND       PRES   REMARKS
GERALDTON      LGT SNOW  -2  -9  71 N7        29.73S WCI -16
THUNDER BAY    MOSUNNY   10   0  61 W9        29.78F WCI  -2
SIOUX LOOKOUT  CRYSTALS  -2  -9  71 N5        29.76F WCI -12
TORONTO        LGT SNOW  25  18  74 S7        29.73F WCI  17
BIG TROUT LK   FLURRIES  -8 -13  77 NW9       29.85F WCI -25
PICKLE LAKE    CRYSTALS  -9 -18  64 N3        29.80F
DRYDEN         SUNNY      1  -4  78 CALM      29.74F
KENORA         FLURRIES   1  -2  85 NE3       29.74F
$$
                *** MANITOBA***

CITY           SKY/WX    TMP DP  RH WIND       PRES   REMARKS
BRANDON        LGT SNOW  21  19  93 E12       29.57F VSB 1   WCI   9
DAUPHIN        LGT SNOW  18  14  86 E13       29.60F WCI   4
ISLAND LAKE    CLEAR     -8 -13  77 SE6       29.87S WCI -21
PILOT MOUND      N/A     27  25  93 S10         N/A  WCI  17
THE PAS        FLURRIES   3  -2  78 E12G20    29.68F WCI -13
THOMPSON       MOCLDY    -9 -15  77 E2        29.85S
WINNIPEG       FLURRIES  12   9  85 E12       29.71F WCI  -2
LYNN LAKE      CLOUDY   -13 -17  84 E8        29.73F WCI -30
CHURCHILL      FLURRIES  -9 -13  84 W7        29.96R WCI -24
GILLAM         CLEAR    -17 -22  76 NW5       29.92R WCI -29
$$
                ***SASKATCHEWAN***

CITY           SKY/WX    TMP DP  RH WIND       PRES   REMARKS
ESTEVAN        CLOUDY    39  27  60 W8        29.51F
KINDERSLEY     LGT RAIN  39  30  70 NW15      29.58F
LLOYDMINSTER   MOSUNNY   39  30  70 NW16G26   29.51F
PRINCE ALBERT  LGT SNOW  23  19  86 E12       29.48F WCI  12
REGINA         CLOUDY    37  30  75 W14       29.48F
YORKTON        LGT SNOW  28  27  93 SE7       29.47F WC


USA.gov is the U.S. government's official web portal to all federal, state and local government web resources and services.